Weather History for Clemson, SC

Change the Weather History Date:

Thursday, February 20, 2014

  Actual Average Record
Temperature  
Mean Temperature 63 °F -  
Max Temperature 71 °F 58 °F 74 °F (1939)
Min Temperature 55 °F 34 °F 11 °F (1958)
Degree Days  
Heating Degree Days 2    
Growing Degree Days 13 (Base 50)    
Moisture  
Dew Point 54 °F    
Average Humidity 73    
Maximum Humidity 90    
Minimum Humidity 55    
Precipitation  
Precipitation 0.00 in - - ()
Sea Level Pressure  
Sea Level Pressure 30.05 in    
Wind  
Wind Speed 2 mph (WSW)    
Max Wind Speed 9 mph    
Max Gust Speed -    
Visibility 8 miles    
Events      
Averages and records for this station are not official NWS values.
T = Trace of Precipitation, MM = Missing Value Source: NWS Daily Summary

Daily Weather History Graph

Daily Weather History Graph

Search for Another Location

Airport:

Trip Planner

Search our weather history database for the weather conditions in past years. The results will help you decide how hot, cold, wet, or windy it might be!

Date:

Astronomy

Feb. 20, 2014 Rise Set
Actual Time 7:11 AM EST 6:19 PM EST
Civil Twilight 6:45 AM EST 6:44 PM EST
Nautical Twilight 6:16 AM EST 7:14 PM EST
Astronomical Twilight 5:47 AM EST 7:43 PM EST
Moon 11:56 PM EST (2/20) 10:08 AM EST (2/20)
Length of Visible Light 11h 59m
Length of Day
11h 07m
Waning Gibbous, 71% of the Moon is Illuminated
Feb 20
Waning Gibbous
Feb 22
Last Quarter
Mar 1
New
Mar 8
First Quarter
Mar 16
Full

Hourly Weather History & Observations

Time (EST) Temp. Dew Point Humidity Pressure Visibility Wind Dir Wind Speed Gust Speed Precip Events Conditions
12:54 AM 60.1 °F 54.0 °F 80% 30.06 in 8.0 mi SSW 3.5 mph - N/A   Mostly Cloudy
1:54 AM 59.0 °F 53.1 °F 81% 30.06 in 7.0 mi Calm Calm - N/A   Mostly Cloudy
2:54 AM 57.9 °F 54.0 °F 87% 30.06 in 6.0 mi Calm Calm - N/A   Mostly Cloudy
3:54 AM 57.9 °F 53.1 °F 84% 30.06 in 6.0 mi Calm Calm - N/A   Haze
4:54 AM 57.0 °F 53.1 °F 87% 30.08 in 5.0 mi Calm Calm - N/A   Mostly Cloudy
5:54 AM 57.0 °F 53.1 °F 87% 30.08 in 5.0 mi Calm Calm - N/A   Partly Cloudy
6:54 AM 57.0 °F 53.1 °F 87% 30.09 in 5.0 mi Calm Calm - N/A   Partly Cloudy
7:31 AM 55.4 °F 51.8 °F 88% 30.11 in 2.5 mi NNW 3.5 mph - N/A   Mostly Cloudy
7:54 AM 55.9 °F 53.1 °F 90% 30.09 in 3.0 mi Calm Calm - N/A   Mostly Cloudy
8:54 AM 57.9 °F 54.0 °F 87% 30.11 in 5.0 mi Calm Calm - N/A   Clear
9:54 AM 62.1 °F 54.0 °F 75% 30.10 in 8.0 mi Calm Calm - N/A   Clear
10:54 AM 66.0 °F 55.0 °F 68% 30.11 in 10.0 mi Calm Calm - N/A   Overcast
11:04 AM 66.2 °F 53.6 °F 64% 30.13 in 10.0 mi Calm Calm - N/A   Overcast
11:54 AM 68.0 °F 55.0 °F 63% 30.11 in 10.0 mi Calm Calm - N/A   Overcast
12:32 PM 69.8 °F 53.6 °F 56% 30.10 in 10.0 mi WSW 9.2 mph - N/A   Mostly Cloudy
12:54 PM 70.0 °F 55.0 °F 59% 30.08 in 10.0 mi Variable 5.8 mph - N/A   Overcast
1:14 PM 69.8 °F 55.4 °F 60% 30.08 in 10.0 mi Variable 5.8 mph - N/A   Overcast
1:51 PM 69.8 °F 55.4 °F 60% 30.07 in 8.0 mi Calm Calm - N/A   Overcast
1:54 PM 70.0 °F 55.9 °F 61% 30.05 in 8.0 mi WSW 5.8 mph - N/A   Overcast
2:54 PM 69.1 °F 55.0 °F 61% 30.03 in 10.0 mi Variable 4.6 mph - N/A   Overcast
3:54 PM 69.1 °F 55.0 °F 61% 30.03 in 10.0 mi Variable 5.8 mph - N/A   Mostly Cloudy
4:54 PM 71.1 °F 54.0 °F 55% 30.02 in 10.0 mi Calm Calm - N/A   Mostly Cloudy
5:54 PM 68.0 °F 55.9 °F 65% 30.00 in 10.0 mi Calm Calm - N/A   Mostly Cloudy
6:54 PM 66.0 °F 55.0 °F 68% 30.00 in 10.0 mi Calm Calm - N/A   Clear
7:54 PM 64.9 °F 55.0 °F 70% 30.01 in 10.0 mi Calm Calm - N/A   Partly Cloudy
8:54 PM 63.0 °F 55.0 °F 75% 30.00 in 10.0 mi Calm Calm - N/A   Clear
9:54 PM 60.1 °F 55.0 °F 83% 29.97 in 8.0 mi Calm Calm - N/A   Clear
10:54 PM 57.9 °F 54.0 °F 87% 29.93 in 5.0 mi Calm Calm - N/A   Clear
11:54 PM 61.0 °F 54.0 °F 78% 29.92 in 10.0 mi Calm Calm - N/A   Partly Cloudy